Wind_Speed
5 4 3 3 3 4 3 3 6 5 4 4 3 4 4 4 3 3 4 3 3 5 4 5 5 5 6 6 7 6 6 6 6 8 10 10 9 8 8 8 8 8 8 7 7 7 7 7 7 7 6 6 5 5 5 5 5 4 4 4 3 3 2 1 0 1 1 2 3 4 4 4 5 5 6 6 6 7 8 8 9 10 11 11 12
5 4 4 3 3 3 3 4 5 4 4 5 2 3 4 4 3 3 3 2 3 5 4 4 4 5 5 5 6 6 6 6 6 7 9 10 9 7 7 8 7 7 7 7 6 6 6 6 6 6 6 5 5 5 5 4 4 4 4 3 3 2 1 0 1 1 2 3 3 4 5 5 5 6 6 7 7 7 8 8 9 10 11 11 11
5 4 4 4 3 3 3 3 4 4 4 4 3 3 4 3 3 4 4 2 3 4 3 3 3 4 5 5 5 5 5 6 6 6 8 10 10 8 7 7 7 6 6 6 6 5 5 5 5 5 5 5 5 4 5 4 4 4 3 3 2 2 1 1 2 2 3 4 4 5 5 6 6 6 7 7 8 8 8 8 9 9 10 10 10
4 4 4 4 3 3 3 2 2 4 5 6 3 3 4 3 2 3 3 3 2 3 3 3 3 3 4 5 5 5 5 5 5 5 7 9 10 10 8 7 6 6 6 6 6 5 5 5 5 5 4 5 4 4 4 3 3 3 3 3 2 2 2 3 3 4 4 5 5 6 6 6 7 7 8 8 8 9 9 9 9 9 9 9 9
4 4 4 3 2 3 3 1 2 5 6 5 2 1 2 1 2 2 2 2 2 4 4 3 3 2 3 5 5 5 5 4 5 5 6 7 9 9 9 8 7 6 6 6 6 5 5 5 5 5 5 5 5 4 4 4 4 3 3 3 3 3 3 4 5 5 6 6 7 7 7 8 8 8 8 8 9 9 9 8 9 9 8 8 8
4 3 2 3 3 2 1 1 4 5 3 3 3 2 2 3 3 3 2 2 2 4 5 4 3 3 3 5 5 4 4 4 4 5 5 6 7 7 8 9 8 7 6 5 5 6 6 6 5 5 6 6 6 5 6 6 5 5 4 4 4 4 4 5 6 7 7 8 8 8 9 8 8 8 8 8 8 8 8 8 8 7 7 7 6
4 2 2 3 3 2 0 3 5 3 2 2 3 4 3 3 4 2 3 4 2 3 5 4 4 3 3 4 4 3 4 4 4 5 5 5 5 5 6 7 7 7 7 5 5 5 6 6 6 5 6 6 6 6 6 6 5 5 5 6 6 6 6 7 8 8 9 9 9 9 9 9 9 8 8 8 8 8 7 7 7 6 6 6 5
4 3 3 3 3 3 2 3 3 2 3 2 2 4 3 3 4 4 3 4 3 3 4 4 4 3 3 4 4 3 4 4 3 4 5 5 5 5 5 5 5 5 6 5 5 5 4 5 6 6 6 6 6 6 6 5 4 4 5 6 6 6 7 7 8 9 9 9 9 9 9 9 8 8 8 8 7 7 7 7 6 6 5 4 4
5 4 3 2 3 3 4 4 2 2 2 1 3 5 3 3 4 4 3 2 3 3 4 4 4 3 4 4 4 3 3 3 3 3 4 4 4 4 4 4 4 4 4 4 5 5 3 3 4 5 6 6 6 6 5 4 4 4 5 6 6 6 7 7 7 8 8 9 9 8 9 8 8 8 7 7 6 6 6 6 6 5 5 3 3
5 4 3 2 3 3 4 4 3 2 2 2 4 4 2 3 3 3 2 2 3 3 4 4 3 3 4 4 3 2 2 2 2 2 3 3 3 3 4 4 4 4 3 3 4 4 3 2 2 4 5 5 5 6 5 5 5 5 6 6 6 6 6 7 7 7 7 8 8 8 8 7 7 7 7 6 6 6 6 6 6 5 4 2 1
5 5 3 3 3 3 3 4 3 2 2 3 4 4 2 1 2 2 2 2 3 3 4 4 3 3 4 4 3 1 1 1 2 2 2 2 2 3 3 3 2 3 2 2 3 3 4 3 2 3 5 5 4 5 6 6 6 6 6 6 6 6 6 6 7 7 7 7 7 7 7 7 7 7 7 6 6 6 6 6 6 5 3 1 1
6 5 4 3 2 3 3 2 2 2 1 3 4 5 4 2 2 2 1 1 3 3 3 3 4 4 3 3 2 1 1 0 1 2 2 2 2 2 3 3 3 2 2 2 2 2 3 3 2 3 4 5 4 4 6 7 7 7 6 6 6 7 7 6 6 7 8 8 7 7 7 7 7 7 7 6 7 7 6 6 5 5 3 2 2
7 6 5 3 2 2 3 2 2 2 1 2 4 4 3 2 3 2 1 1 2 3 3 3 4 3 2 2 2 1 1 0 1 2 2 2 3 2 1 3 3 3 3 2 2 2 3 3 3 3 3 3 3 4 5 5 6 6 6 6 7 8 8 7 7 7 8 8 7 7 7 7 7 7 7 7 7 7 6 6 5 4 4 4 3
8 7 6 5 4 3 3 3 2 1 1 0 2 3 1 1 2 1 1 1 1 2 3 2 2 3 2 1 2 1 0 1 1 2 3 2 3 3 2 1 2 3 3 3 2 3 3 3 2 2 3 3 3 4 5 5 4 5 5 6 7 8 9 8 9 9 9 8 7 7 7 7 7 7 7 7 7 6 6 6 5 5 5 5 4
9 8 7 6 5 4 4 4 3 3 2 1 1 1 1 1 1 1 0 1 1 2 2 1 0 2 2 1 1 2 0 1 2 3 3 3 2 3 3 2 2 2 1 2 2 2 2 2 2 1 2 2 3 4 4 4 6 7 7 7 7 7 8 9 9 9 8 7 7 7 7 7 7 7 7 7 6 6 6 6 6 6 6 6 5
9 9 8 7 6 5 4 5 5 4 3 2 2 2 2 2 2 2 1 2 3 2 3 2 0 1 1 1 1 1 0 1 3 3 3 3 3 3 3 2 3 2 2 2 1 2 2 2 2 2 2 3 3 4 4 5 7 8 7 6 7 7 7 8 8 8 7 7 6 7 7 8 8 7 7 7 7 6 7 7 7 7 7 7 6
10 10 9 8 7 6 5 5 5 5 4 4 3 3 3 3 3 3 3 4 4 1 3 3 2 1 0 1 0 1 2 1 1 0 2 3 4 3 3 3 4 4 3 4 3 3 4 4 4 4 4 4 4 4 4 5 5 5 5 5 5 6 7 7 7 7 7 7 7 8 8 8 8 7 7 7 7 7 7 8 8 8 8 8 8
11 10 10 8 8 7 6 6 5 6 6 5 4 3 3 3 3 3 4 4 3 1 1 2 2 2 2 1 0 0 1 2 2 1 2 3 3 4 5 4 5 5 4 5 4 4 4 4 4 5 5 5 4 5 4 5 5 5 6 7 6 6 6 6 7 7 8 7 7 8 9 8 8 8 8 8 8 8 9 9 9 10 10 9 9
11 11 10 9 9 8 8 7 6 6 6 6 5 4 4 4 4 3 3 2 2 1 2 3 2 2 4 3 2 1 1 2 1 1 1 2 3 4 5 4 5 6 6 5 5 5 5 5 4 5 6 6 5 6 6 5 6 7 8 8 7 6 6 6 6 6 7 8 8 8 9 9 9 9 9 8 8 9 10 10 11 11 11 11 11
12 11 11 10 10 9 9 8 7 7 7 7 7 5 4 3 4 3 3 2 3 3 3 1 2 2 3 3 3 2 1 2 1 1 1 1 2 4 3 3 3 4 4 4 4 4 4 5 5 5 5 6 6 6 6 6 7 7 8 7 6 6 6 6 6 6 6 7 8 8 9 10 9 9 9 9 9 10 11 11 12 12 12 12 12
13 12 12 12 11 10 10 9 8 7 7 7 7 6 5 4 4 4 4 4 4 4 3 2 2 2 2 2 2 2 3 3 2 2 1 1 2 2 1 3 4 2 1 3 3 3 3 6 7 6 6 6 7 7 7 7 7 7 9 8 6 6 7 7 6 6 6 7 8 8 9 10 10 10 10 10 11 11 12 13 13 13 14 14 14
14 14 13 12 12 11 11 10 10 9 8 7 7 7 6 6 6 5 5 5 5 5 4 4 4 2 2 3 2 2 2 2 3 2 1 0 2 3 2 2 1 3 1 2 2 2 4 4 5 6 7 6 6 7 7 7 7 7 10 11 9 8 8 8 8 7 8 8 8 9 9 10 11 11 11 12 12 13 13 14 14 15 15 15 16
13 14 14 14 13 13 12 11 11 10 9 8 7 7 7 7 7 7 7 6 5 5 5 5 4 4 3 3 4 4 3 2 3 2 2 3 3 3 3 4 3 2 2 2 3 5 6 5 6 7 7 6 7 7 7 8 8 10 12 13 12 11 9 8 9 9 9 10 10 10 10 10 11 12 13 14 14 14 15 16 16 16 17 17 17
14 14 15 15 15 14 13 12 11 11 10 9 8 8 7 7 7 7 7 7 7 6 6 6 5 5 5 5 5 5 4 3 4 3 3 2 2 4 4 3 4 4 3 3 5 5 6 6 7 7 7 8 7 7 8 8 10 13 15 15 14 12 11 11 10 11 11 11 11 11 11 12 12 13 14 15 16 16 17 17 18 18 18 19 19
16 15 15 15 16 15 14 14 13 12 11 10 9 8 7 7 7 8 8 7 7 7 7 7 6 6 5 4 5 5 4 4 5 4 3 2 2 5 5 4 5 5 3 4 4 5 6 7 7 7 7 7 7 8 9 9 11 14 15 15 15 14 13 14 13 13 14 13 13 13 13 13 14 15 15 16 17 18 19 19 20 20 21 21 21
18 17 16 16 16 16 16 15 14 13 12 12 10 9 9 8 8 8 8 8 8 8 8 7 7 7 6 5 5 5 4 4 4 4 4 4 4 4 4 5 6 6 4 4 4 6 6 6 6 7 7 7 7 8 9 10 11 14 14 14 15 16 16 16 17 17 17 16 16 16 16 16 16 17 17 18 19 20 21 22 22 23 23 23 23
18 18 17 17 16 16 16 16 15 15 14 13 12 11 10 9 9 9 9 9 8 8 8 8 8 7 7 6 6 6 5 5 5 5 5 5 4 4 4 4 5 5 5 4 4 6 6 5 6 7 7 8 8 8 10 10 11 13 14 13 15 17 19 20 20 20 20 19 19 19 19 19 19 19 20 20 21 22 23 24 24 25 25 26 26
18 19 19 19 18 17 17 17 16 16 15 14 13 12 11 11 10 10 10 9 9 9 9 8 8 8 7 7 7 7 6 6 6 5 5 5 5 4 4 4 4 4 4 4 4 5 6 6 7 8 7 7 8 9 10 11 12 14 15 16 17 19 21 23 22 22 22 23 23 23 23 23 23 23 23 23 24 24 25 26 26 27 28 28 28
18 19 20 20 20 19 18 17 17 17 16 16 15 14 13 12 12 11 11 10 9 9 9 9 9 8 8 8 8 8 7 7 7 6 5 5 5 5 5 6 5 4 4 3 4 6 6 7 6 8 9 9 10 10 10 11 12 13 15 16 17 18 20 22 23 23 23 23 24 25 26 27 27 27 27 27 28 28 28 29 29 29 30 30 30
19 19 20 20 20 20 19 17 17 17 17 16 16 15 14 14 13 13 12 11 10 10 10 10 10 9 9 8 8 8 8 8 8 7 7 6 7 7 6 6 6 6 6 5 5 7 7 8 7 5 9 9 9 10 11 12 13 15 15 15 16 17 19 21 23 24 24 24 24 25 26 28 29 30 30 31 31 32 33 32 32 33 33 33 33
20 19 20 21 21 21 20 18 18 17 17 17 16 16 16 15 14 14 13 12 11 11 10 11 10 10 10 9 9 9 9 8 8 8 7 7 8 8 7 8 8 8 8 7 6 7 7 7 8 7 5 7 8 10 12 13 14 16 17 17 18 19 20 23 24 25 25 26 26 26 27 28 30 31 32 33 34 35 36 36 36 36 36 36 36
21 21 21 22 22 21 21 20 19 18 18 18 17 17 17 16 15 14 13 13 13 12 11 11 11 10 11 11 11 10 10 9 9 9 8 8 9 9 9 9 9 9 10 9 8 9 10 10 11 12 11 11 12 13 14 15 15 17 19 20 21 21 22 23 25 25 26 27 28 28 29 30 31 32 32 34 35 37 37 38 39 39 39 39 39
22 22 22 22 22 22 22 21 20 20 19 19 18 18 17 17 16 15 14 14 14 13 12 12 12 11 11 11 12 11 11 11 10 10 10 10 10 10 10 10 11 11 11 11 11 12 13 12 13 14 14 14 15 15 15 16 16 17 18 20 21 21 22 22 23 25 26 27 27 28 29 30 32 32 33 34 36 37 38 39 40 41 41 42 42
22 23 23 22 22 22 22 22 21 21 20 20 19 18 18 18 17 16 15 15 15 14 14 14 13 12 12 12 12 12 12 12 12 12 11 11 11 11 11 11 12 12 12 13 13 13 14 13 13 14 14 14 16 16 15 17 17 17 18 19 19 20 21 22 22 23 25 27 28 29 30 30 31 32 33 34 36 37 39 40 41 41 42 44 44
23 23 24 23 22 22 22 22 22 22 21 21 20 20 19 19 18 18 17 16 16 16 16 15 15 14 13 13 13 13 13 13 13 13 12 12 12 12 12 11 12 13 13 13 14 14 15 14 14 14 15 14 15 15 15 16 17 18 19 19 19 19 20 21 22 23 24 26 28 29 31 32 32 33 34 34 35 36 38 39 40 41 42 44 45
24 24 24 23 23 23 23 22 23 23 22 21 21 20 20 20 19 19 18 17 17 17 17 16 16 15 15 14 14 14 13 13 13 13 12 12 12 12 13 13 13 14 13 14 15 15 15 16 15 14 14 15 15 15 15 16 16 17 18 19 19 20 20 20 21 23 23 25 27 29 31 31 32 32 32 32 33 35 36 37 39 40 41 42 44
25 24 24 24 24 24 23 23 23 23 23 23 22 21 21 20 20 19 19 18 18 18 18 17 16 16 16 16 15 14 14 14 14 14 13 13 13 13 13 13 13 13 14 14 14 15 16 17 17 15 15 15 16 15 15 15 16 16 17 18 19 20 21 20 20 21 22 24 25 26 28 28 27 27 27 28 30 32 33 34 36 38 39 41 42
26 25 24 24 24 24 24 23 23 24 23 23 23 22 21 21 20 20 19 19 19 18 18 18 17 17 17 17 16 15 15 15 15 14 14 14 14 14 14 13 13 13 13 14 14 15 17 18 18 17 16 15 15 16 15 15 16 16 17 18 18 19 20 20 19 19 21 22 23 24 26 26 26 26 27 29 32 32 31 31 32 34 36 38 39
27 26 26 25 24 24 24 24 23 24 23 23 23 22 22 21 21 20 20 20 20 19 19 18 18 18 18 17 17 17 17 17 16 16 15 14 14 14 14 13 13 13 14 14 14 15 16 17 18 17 17 15 15 15 15 15 17 17 18 18 18 18 19 19 19 20 22 22 22 24 25 26 27 29 30 32 33 34 33 32 32 32 33 35 36
27 27 27 26 25 24 25 24 24 23 23 23 23 23 22 22 21 21 21 20 20 19 19 19 18 18 18 18 18 18 18 18 18 17 15 14 13 13 13 13 13 13 14 14 14 14 15 16 16 16 16 16 15 15 16 16 17 17 17 18 18 19 19 20 20 21 22 22 22 24 24 24 25 27 28 29 32 33 33 33 34 34 33 33 33
27 27 27 26 25 25 25 25 24 24 24 24 24 24 23 23 22 22 21 21 21 20 19 19 19 19 19 19 18 18 18 18 19 19 18 16 14 13 12 11 11 12 13 14 14 14 14 15 16 16 16 16 15 16 16 15 16 17 17 18 19 20 21 22 21 21 22 22 23 23 23 22 24 26 26 27 29 31 32 34 35 36 35 33 32
26 27 27 27 26 26 25 25 25 24 24 24 25 26 26 24 23 22 21 21 21 21 20 19 19 19 19 19 19 18 18 19 19 21 21 21 20 18 16 14 13 13 13 13 14 14 15 15 16 15 15 15 14 14 15 16 18 19 19 19 20 21 22 22 21 21 21 20 20 22 23 21 23 26 27 26 28 29 30 32 33 35 35 32 28
26 26 26 27 27 26 26 26 26 25 25 25 26 29 29 28 25 22 21 21 21 21 21 20 19 19 19 19 19 18 19 20 21 23 25 26 26 25 25 23 21 19 18 17 15 15 15 16 16 16 15 16 15 14 16 17 18 19 20 20 20 21 20 19 20 20 19 18 19 23 25 23 23 26 27 26 27 28 28 28 30 32 33 31 28
27 26 26 27 27 26 25 26 26 26 25 25 27 30 32 32 29 25 21 21 21 20 20 20 20 19 20 20 19 18 18 19 20 21 23 25 25 25 25 23 22 22 22 22 21 19 17 16 16 16 16 16 16 15 16 17 18 20 21 21 20 20 21 20 20 21 21 22 24 25 27 25 21 24 26 25 25 27 28 28 30 31 32 33 32
27 26 26 26 26 26 25 25 26 26 25 25 28 30 32 34 34 30 24 20 21 21 20 20 20 20 19 19 19 18 18 18 19 18 19 19 19 20 20 20 20 20 20 21 22 23 22 20 19 18 17 17 17 17 16 17 19 20 21 21 21 21 22 22 22 23 25 25 25 26 28 25 21 22 25 25 25 26 28 28 29 30 32 33 32
27 26 26 25 25 26 25 24 24 24 24 25 28 30 32 33 34 34 29 22 19 20 19 19 19 19 19 19 18 18 17 17 17 17 17 17 16 16 17 17 19 19 18 17 17 19 21 22 22 21 20 20 19 19 18 17 18 20 21 22 23 23 24 24 25 26 27 26 23 23 25 24 21 22 24 23 23 25 26 27 28 29 31 33 33
27 26 26 25 25 26 26 25 24 23 24 25 27 29 32 32 32 34 33 26 19 18 19 18 18 18 18 18 18 18 17 17 18 17 16 15 15 14 15 15 16 15 15 15 16 16 18 20 21 22 21 21 20 18 17 17 18 20 21 23 24 25 26 26 25 24 23 21 18 18 20 22 21 23 24 22 23 25 26 27 28 29 29 31 33
26 25 25 25 25 25 26 26 25 24 23 24 25 27 29 31 30 32 32 27 21 20 19 19 20 19 19 19 18 18 18 18 18 19 19 17 15 14 14 14 14 14 14 15 16 17 19 20 20 21 21 20 19 18 18 20 22 22 22 23 24 24 24 23 22 20 17 16 15 16 19 22 21 22 25 25 24 25 26 27 27 27 27 28 30
26 25 25 25 25 25 25 26 26 25 24 25 26 26 27 29 29 31 31 26 22 22 21 20 21 21 21 21 20 19 19 19 19 20 21 20 18 16 15 15 15 15 15 14 15 17 19 20 21 23 24 22 21 21 21 23 23 22 22 23 23 22 21 20 20 19 17 16 16 17 18 20 20 21 25 26 26 26 25 24 24 24 23 24 25
26 25 24 24 25 25 26 26 26 26 25 27 28 28 28 29 29 30 29 24 21 21 20 20 20 21 22 24 24 22 20 18 18 19 20 21 19 17 16 15 15 15 14 13 14 16 17 17 16 18 20 21 20 20 20 21 20 19 21 24 23 21 20 19 19 20 20 17 16 15 17 19 20 21 23 25 26 25 23 21 22 23 22 23 24
25 25 24 24 24 25 25 26 27 27 26 27 29 30 31 31 31 31 28 22 20 20 19 19 20 20 21 23 25 27 25 21 19 18 18 19 18 16 16 15 16 15 14 13 13 13 12 12 11 11 13 15 16 17 18 18 18 18 19 21 21 18 17 18 19 19 16 14 13 15 17 19 20 21 22 20 18 20 22 22 22 22 21 23 24
Wind_Direction
141 143 136 115 103 111 110 97 94 96 99 90 85 89 88 93 91 96 101 96 103 103 100 101 101 95 96 103 107 108 108 111 114 119 128 133 133 134 134 134 135 136 131 126 121 115 111 107 106 106 107 107 103 105 109 110 113 115 118 124 130 130 139 128 48 349 330 327 340 340 339 339 336 340 342 346 350 351 352 353 354 352 352 352 355
122 118 110 102 100 90 81 84 85 87 89 86 74 75 89 103 88 81 95 107 109 111 112 105 103 96 92 98 106 112 115 118 120 123 132 137 140 141 137 137 140 143 141 140 136 129 123 119 116 114 114 113 110 113 118 119 122 126 131 138 147 158 183 236 304 306 308 314 325 327 325 323 325 333 336 340 341 343 346 345 347 349 348 350 354
104 106 110 104 95 89 73 74 90 85 78 81 62 53 69 74 67 67 80 89 100 110 115 107 102 96 98 100 104 112 117 124 128 130 135 138 142 144 142 144 148 146 144 148 149 146 142 140 140 136 135 135 132 132 135 136 140 147 154 159 170 191 238 275 288 294 297 303 310 311 312 314 320 327 331 335 334 335 339 339 343 345 345 348 352
93 93 99 92 88 87 78 77 101 92 80 71 50 44 54 52 56 57 80 92 102 117 112 105 101 98 108 105 103 107 109 121 128 126 127 135 146 151 150 150 152 152 151 155 154 158 163 162 162 162 164 162 160 162 160 161 166 171 181 188 201 223 262 282 284 289 291 295 301 302 304 309 318 322 324 330 331 332 334 337 341 341 344 349 352
97 99 98 89 98 85 79 96 80 79 86 80 81 112 63 54 73 65 92 115 129 128 118 115 115 108 100 96 99 103 105 114 122 127 131 139 149 155 156 156 160 162 164 168 162 166 177 177 177 181 188 186 185 190 191 196 205 210 217 222 235 251 269 280 284 288 290 292 298 300 302 307 315 317 319 325 327 330 332 336 339 340 344 349 352
112 114 103 95 108 90 63 80 73 65 69 80 100 107 64 54 63 68 96 91 111 121 120 122 110 86 77 90 99 102 103 105 113 125 130 132 142 152 154 157 168 173 173 174 171 177 184 186 189 192 197 199 202 208 208 214 224 232 245 254 262 267 271 277 280 283 285 288 294 297 300 304 308 312 315 319 322 326 327 331 336 339 342 345 351
126 115 106 122 134 149 125 69 80 79 70 67 69 74 71 57 41 36 86 86 92 106 111 115 100 83 68 83 98 101 96 97 113 125 127 130 141 153 153 159 172 178 182 190 189 190 193 193 197 200 206 210 211 218 223 230 241 248 256 260 264 267 269 272 276 279 283 288 292 295 297 299 302 306 310 313 316 318 320 325 331 335 338 340 347
137 128 138 152 152 161 137 82 78 89 82 58 67 84 75 36 29 38 70 86 97 99 112 116 110 111 105 100 101 96 90 94 117 124 127 135 142 150 157 164 167 170 184 200 199 197 204 205 209 210 212 219 222 227 232 236 244 249 255 257 259 262 266 273 277 282 286 290 293 294 293 294 299 302 304 308 309 310 313 319 324 326 327 331 346
144 148 176 172 164 165 139 124 133 127 114 78 92 96 65 33 37 46 54 66 94 113 131 129 126 134 127 114 104 98 92 88 104 116 122 136 150 152 155 160 159 167 182 188 191 204 227 225 220 224 224 226 232 238 242 242 241 244 250 253 257 262 269 278 283 288 289 290 291 290 290 290 292 296 300 304 301 302 305 309 315 314 311 320 345
155 161 180 170 174 171 136 143 151 132 160 130 94 94 65 57 52 35 26 39 81 118 131 126 133 140 127 115 103 96 90 90 103 117 133 146 157 154 147 153 161 168 176 171 177 200 229 256 250 240 238 236 241 249 249 248 247 246 246 249 258 263 271 280 285 289 288 287 289 287 286 287 286 289 295 298 294 295 297 299 304 302 299 310 332
168 170 178 177 179 161 124 137 145 134 172 147 113 119 131 102 84 60 32 50 79 107 118 123 129 122 119 118 114 99 80 103 139 130 142 150 151 168 159 145 160 167 169 173 168 175 197 235 268 247 245 246 257 262 255 254 253 251 251 253 261 265 268 275 279 283 284 286 287 285 284 283 282 283 286 286 286 286 286 290 295 291 281 254 231
177 177 184 189 180 161 138 132 157 167 166 139 126 136 152 166 124 85 24 75 101 110 118 119 109 100 106 121 122 138 117 71 167 152 155 154 151 185 168 139 149 170 172 182 186 173 177 197 212 222 239 248 269 277 264 260 259 258 260 261 265 267 266 269 274 278 283 285 282 280 280 277 275 275 277 275 275 277 279 283 285 274 247 206 215
185 182 184 188 181 165 152 163 193 184 158 121 111 118 134 124 108 98 324 118 117 132 125 103 113 127 147 157 148 166 175 171 194 176 178 177 159 161 159 139 145 165 175 171 174 193 184 185 196 200 211 239 276 291 286 277 266 262 263 266 267 268 268 267 269 272 276 279 276 275 273 272 272 269 270 270 269 272 273 273 265 246 216 203 217
191 192 188 188 193 192 174 183 205 197 219 194 95 105 133 142 120 140 193 169 156 135 120 114 143 148 134 164 170 154 188 199 211 202 192 194 176 163 158 152 147 147 161 162 166 197 197 180 185 186 185 211 242 260 286 290 272 268 269 272 270 268 270 269 269 268 267 269 270 270 267 269 271 267 267 266 266 268 265 260 244 223 211 210 221
196 197 194 194 196 202 189 185 199 212 220 216 157 151 180 203 204 229 214 247 231 143 144 217 252 104 114 165 185 151 203 246 234 230 202 203 217 188 171 180 171 146 164 194 184 187 185 171 175 198 206 213 217 225 251 251 253 271 276 273 270 267 269 270 273 272 266 264 267 270 269 269 267 265 267 265 263 261 258 252 233 218 217 220 228
199 197 196 196 196 203 203 192 193 202 205 201 203 190 191 207 212 213 199 268 253 163 157 204 2 53 135 233 220 145 119 174 184 224 219 205 225 213 188 209 196 174 223 233 212 197 190 196 203 217 233 233 228 224 225 229 252 278 284 277 267 261 265 269 273 275 266 260 263 270 271 267 264 261 261 258 258 259 253 244 230 221 225 229 234
201 199 198 196 197 204 208 204 196 200 204 208 213 192 192 209 206 204 199 233 252 157 139 189 170 73 320 286 245 95 29 38 121 204 263 230 229 214 195 234 216 184 226 244 233 230 209 201 208 219 230 230 234 233 225 231 252 276 287 287 272 258 265 270 273 276 270 257 253 264 268 263 260 257 254 254 258 258 248 237 230 228 230 234 237
200 200 199 198 201 205 209 210 205 206 209 215 221 202 205 211 203 213 215 229 259 51 143 190 151 145 195 204 189 235 3 2 21 35 327 300 270 224 198 231 227 191 219 238 221 229 226 212 214 220 221 220 225 230 229 231 232 233 247 263 269 264 264 265 268 270 267 257 248 253 261 264 261 254 251 257 260 253 242 236 234 233 235 239 240
201 202 202 202 204 205 207 212 209 208 211 218 223 212 206 205 203 214 222 226 241 250 217 177 149 190 209 199 205 252 331 332 326 18 340 333 314 271 219 209 228 210 213 228 223 223 217 211 230 233 219 214 220 229 233 232 228 229 239 252 260 261 259 253 257 264 264 263 257 249 252 260 262 256 252 255 254 247 241 240 238 238 241 243 243
204 203 204 204 205 205 206 210 214 211 209 215 222 223 212 195 201 212 219 218 214 239 256 205 182 205 211 221 224 226 253 266 299 353 328 352 326 287 237 181 227 232 221 235 239 228 201 201 232 252 240 224 219 228 237 238 233 237 248 260 262 253 248 246 252 261 265 266 266 260 255 257 259 257 255 253 248 244 243 243 242 243 246 247 247
205 205 205 206 205 205 205 207 213 214 213 217 219 221 219 207 210 215 218 221 214 227 250 249 246 214 181 227 253 237 237 246 227 210 247 355 331 298 224 193 199 186 239 262 245 242 230 209 213 235 250 238 227 231 239 242 239 237 244 258 272 265 253 249 251 256 264 266 266 266 263 260 257 255 254 252 248 245 243 243 245 246 248 249 249
206 206 207 208 207 206 206 208 212 213 216 222 220 217 219 218 223 225 223 224 221 221 229 234 245 252 202 194 227 242 246 265 259 238 215 268 280 301 306 280 199 139 202 264 250 268 272 239 219 235 243 235 233 237 237 240 242 240 243 253 272 279 267 257 257 258 260 262 263 264 264 262 259 256 253 251 249 247 245 245 248 249 250 250 250
207 207 209 209 210 209 208 210 211 213 216 221 223 219 217 218 221 226 229 229 228 227 233 238 236 247 243 203 211 229 217 235 261 265 263 258 270 295 308 319 320 293 260 265 265 267 265 255 249 253 251 244 246 246 243 244 243 241 246 257 269 274 271 265 262 263 263 262 262 262 263 262 261 259 256 254 252 249 248 248 250 251 251 250 250
208 209 210 209 209 209 210 212 211 213 215 217 221 222 221 220 217 222 228 228 232 231 234 243 236 235 242 225 224 234 221 234 251 231 230 263 316 296 285 294 290 281 277 263 253 252 253 251 248 247 248 247 247 245 245 247 247 249 254 264 270 268 268 269 265 265 266 266 266 264 264 263 261 260 258 256 255 253 252 252 253 254 253 252 250
207 209 210 209 207 207 209 211 211 213 215 216 219 222 225 225 222 224 226 227 229 231 233 240 240 239 247 244 241 247 233 229 251 256 247 235 244 269 288 305 291 282 292 286 276 273 268 258 248 245 244 245 245 243 247 249 251 256 259 264 271 270 266 266 266 267 266 266 268 268 268 266 264 262 260 258 257 256 256 255 255 256 255 253 252
208 208 208 209 208 207 208 210 212 212 213 216 217 219 223 226 229 229 229 230 228 230 234 238 241 242 246 253 255 263 261 245 244 252 258 249 242 263 298 309 295 290 288 270 263 270 272 259 244 240 237 241 249 247 249 252 255 262 262 258 264 271 269 265 265 265 266 267 267 267 268 268 267 266 263 262 260 259 258 257 257 257 257 256 254
208 206 204 206 207 207 208 209 211 211 211 214 215 217 221 223 229 231 232 232 229 231 235 238 242 242 241 248 255 260 264 266 261 257 267 277 284 303 313 306 298 298 295 278 259 260 262 259 246 236 230 231 243 251 250 250 255 263 266 259 255 263 268 268 267 265 265 266 266 267 267 266 267 266 266 265 263 262 261 260 259 259 258 258 257
208 205 202 201 204 206 208 209 209 209 210 213 215 217 221 223 225 228 231 231 229 231 234 238 243 243 241 241 247 255 257 260 265 267 273 279 287 296 292 283 289 299 300 298 290 274 257 256 243 223 219 222 229 246 250 248 251 255 259 260 256 258 263 266 269 269 268 267 267 267 266 266 265 265 265 265 264 264 263 262 261 260 260 259 258
209 205 201 199 200 203 207 210 209 209 211 213 215 216 218 223 225 227 230 230 229 231 233 237 242 243 243 238 237 248 253 254 258 260 260 264 270 271 266 268 273 281 294 294 293 293 286 287 267 209 205 223 231 240 245 243 247 248 249 253 254 254 259 265 270 273 273 271 268 267 266 266 266 264 264 264 263 263 263 262 262 261 260 259 258
211 206 200 198 199 200 204 209 209 210 211 212 213 214 216 221 225 227 229 228 229 231 231 235 239 241 244 242 239 242 245 246 248 248 246 244 250 257 257 260 256 257 273 284 285 289 284 286 284 221 199 218 235 242 242 241 246 246 244 247 251 253 257 263 269 273 274 274 271 267 264 263 264 263 263 263 262 262 261 260 261 261 260 260 259
209 205 198 197 198 199 201 205 207 208 210 210 210 212 215 219 223 226 226 225 228 230 229 231 234 236 239 241 241 243 246 249 251 250 246 238 239 248 250 252 254 251 260 269 275 281 280 278 288 284 242 229 242 252 251 250 253 254 253 253 255 259 261 263 266 269 271 271 270 267 264 262 261 261 261 261 261 261 260 259 259 260 260 259 259
205 203 200 199 198 198 199 202 205 206 207 209 209 209 213 218 222 226 226 223 224 227 230 231 232 232 234 237 238 240 243 247 251 252 248 242 239 243 246 247 249 248 249 255 261 269 276 277 282 285 277 267 265 264 261 261 261 261 262 262 264 267 265 262 264 267 269 270 269 267 264 261 260 259 259 259 260 261 261 260 259 259 259 259 259
204 203 201 201 199 198 199 201 203 205 205 207 208 209 212 216 220 225 226 223 223 226 229 232 235 233 231 234 237 238 240 242 246 249 249 245 239 239 243 245 248 249 245 249 258 267 272 273 274 276 276 275 274 269 267 267 265 263 263 265 268 269 266 262 262 264 267 269 270 270 268 266 263 261 260 259 260 261 262 261 261 261 261 261 260
202 203 202 203 202 199 199 200 201 203 204 205 207 208 210 214 217 221 224 223 222 224 228 231 233 234 232 234 237 237 239 241 243 246 249 250 246 243 242 242 247 250 247 247 255 265 271 272 273 274 274 272 272 270 269 268 268 267 265 265 266 266 265 264 263 264 266 268 271 273 274 273 272 270 267 265 265 265 265 265 265 264 264 264 263
203 203 203 203 203 201 201 200 199 201 202 203 206 207 209 212 216 220 222 223 223 224 227 229 230 231 232 233 236 237 238 240 242 245 248 252 255 255 253 250 250 251 251 250 252 260 269 274 275 277 278 276 274 275 275 273 273 273 270 269 271 270 269 269 269 271 272 273 275 276 277 278 278 278 277 275 274 273 271 270 269 267 266 265 265
204 204 204 204 204 202 202 201 198 199 201 202 204 207 209 212 215 219 222 223 224 225 227 230 230 231 232 232 234 236 236 239 241 243 246 248 251 255 255 254 253 254 254 254 253 257 264 272 274 275 278 279 278 279 280 279 278 277 274 274 275 276 276 276 278 280 282 282 280 278 278 279 280 280 280 280 280 279 277 274 272 270 267 266 265
204 203 203 204 204 203 204 203 199 198 200 200 203 206 209 212 215 218 221 222 224 226 227 230 230 231 232 232 234 234 234 236 239 241 243 245 247 250 252 253 252 253 254 254 257 259 263 270 275 276 277 278 278 278 279 281 281 281 279 278 279 281 282 282 283 286 289 290 289 287 286 285 284 282 281 281 283 282 281 279 275 272 270 267 265
205 203 202 203 205 204 204 203 200 199 200 200 202 205 209 213 215 217 220 221 223 224 226 228 229 230 231 233 234 234 234 236 238 240 241 243 246 248 250 252 253 255 256 256 258 262 266 270 275 277 277 276 277 281 282 284 285 286 288 286 284 284 284 283 283 286 290 293 293 295 295 294 291 287 283 283 284 282 281 281 280 278 275 273 270
204 204 202 202 204 205 204 204 202 200 200 201 203 205 209 213 215 217 220 221 222 223 225 226 228 229 231 232 234 234 235 237 239 241 241 240 244 247 248 251 253 256 258 260 262 264 266 270 273 275 277 276 278 282 285 287 285 283 285 288 288 287 286 282 283 288 291 291 291 293 293 292 291 289 288 289 288 284 279 278 278 278 279 280 279
205 205 203 201 202 205 205 204 202 200 200 202 203 204 207 211 215 218 219 221 223 223 224 226 228 230 232 233 235 235 235 236 238 240 240 240 242 246 247 248 250 253 257 261 265 266 268 272 274 276 279 280 281 283 284 284 282 282 286 291 292 292 290 288 287 288 289 289 290 293 294 294 291 291 293 294 293 291 286 282 279 276 275 279 282
204 206 206 203 202 205 206 205 204 202 201 203 204 204 204 208 213 217 219 221 223 225 226 227 228 231 234 236 239 239 238 238 237 238 239 238 237 241 244 246 249 254 258 261 264 267 268 271 274 276 277 278 279 283 285 286 288 293 296 294 292 293 296 297 293 290 289 290 291 292 295 296 294 292 292 291 292 292 291 289 288 284 279 276 278
203 206 207 207 205 205 206 206 205 205 205 206 206 205 204 205 210 215 219 221 224 225 226 228 229 231 234 238 241 242 243 242 241 242 244 242 241 242 243 245 250 254 259 262 262 263 266 268 271 274 276 277 280 286 290 293 295 296 297 296 297 300 302 301 297 295 293 291 293 294 295 296 295 292 290 289 290 291 289 289 291 291 288 282 277
201 204 206 208 209 207 206 207 208 208 210 210 208 207 207 207 208 212 218 220 222 225 226 226 228 230 234 238 241 243 243 243 243 245 248 250 251 252 254 256 257 256 256 259 261 264 268 270 272 275 277 280 284 289 292 294 296 298 300 302 302 301 301 299 298 300 300 300 303 302 297 296 294 291 289 289 290 291 289 289 291 293 295 292 285
199 201 204 206 209 210 208 209 211 212 213 213 210 210 210 212 211 211 215 220 221 223 225 225 226 229 232 237 241 242 242 241 242 244 249 253 255 257 259 261 262 259 255 254 256 259 264 269 274 275 277 283 288 290 291 294 298 300 300 298 297 296 296 296 297 299 303 309 312 305 298 296 293 288 287 289 290 290 290 290 292 293 295 294 291
197 199 203 204 207 210 210 211 212 214 216 214 212 212 213 216 216 213 213 219 221 223 224 224 226 228 230 234 238 241 242 242 241 240 244 252 258 261 262 262 263 264 261 257 255 254 255 260 266 269 272 277 282 285 287 293 298 298 295 294 296 297 297 299 301 303 306 309 307 300 295 294 294 290 289 290 290 290 290 290 290 291 293 294 294
197 199 202 204 205 208 210 212 213 216 219 217 214 214 216 218 219 217 215 218 222 224 224 224 226 227 229 231 234 237 239 240 239 238 238 242 250 258 261 262 263 266 266 263 258 253 250 250 254 260 265 267 270 275 281 284 285 285 288 294 299 301 300 302 303 304 303 301 294 290 290 295 300 297 295 296 297 295 294 293 293 293 294 295 296
197 198 201 204 205 207 209 212 213 216 220 220 216 215 217 219 221 220 219 220 225 227 226 225 227 229 229 231 233 235 236 235 236 236 235 237 241 246 251 255 257 259 260 258 258 258 255 252 254 260 266 266 263 268 276 279 278 281 289 296 299 300 301 301 301 299 298 298 293 288 291 298 305 302 299 303 304 300 298 297 296 296 295 293 292
199 199 202 204 206 207 208 211 215 217 221 222 220 217 218 220 220 220 220 222 226 229 228 227 228 229 231 231 233 234 235 235 236 236 235 235 238 244 248 253 257 258 259 258 258 260 260 259 260 263 266 264 260 263 273 281 282 284 289 293 295 297 298 299 300 299 302 307 303 295 294 298 304 305 303 305 305 301 299 298 296 296 297 294 292
201 201 203 205 207 208 208 210 214 218 220 222 222 220 219 218 217 217 217 219 224 228 229 228 228 229 231 231 232 233 235 236 237 237 238 237 238 244 251 256 259 261 263 264 263 262 260 260 263 265 266 266 265 267 273 279 282 285 286 286 290 295 298 299 302 305 310 312 309 304 301 302 307 307 305 306 305 302 300 301 302 304 303 300 297
203 203 204 207 209 210 211 211 212 215 220 223 222 221 220 217 215 215 214 215 222 226 227 228 228 229 232 233 233 233 233 236 237 238 240 238 236 240 247 254 258 259 261 263 266 269 269 268 267 266 266 266 266 270 274 277 283 287 283 280 284 291 295 298 302 307 309 308 310 314 311 307 309 311 310 309 307 304 306 311 313 313 312 309 308
205 206 205 208 210 211 212 213 212 214 219 223 222 220 220 219 217 214 212 213 219 224 226 228 226 228 232 235 236 235 233 233 234 235 238 237 233 234 242 250 254 254 257 260 264 273 279 276 269 265 266 267 270 277 282 282 285 286 279 277 280 285 288 294 298 302 304 307 320 331 326 317 317 318 317 315 309 307 312 316 316 316 314 312 311
Height
853 853 854 854 855 855 855 855 856 857 857 857 857 857 858 857 858 858 857 857 857 858 858 859 859 859 860 860 860 861 861 862 862 863 864 865 866 866 866 867 868 868 869 870 870 871 871 871 872 872 872 873 873 873 873 873 874 874 874 874 874 874 875 874 874 874 874 874 874 873 873 873 873 872 872 872 872 871 871 870 870 869 868 867 867
852 853 853 854 854 855 855 855 856 856 857 857 857 857 857 857 857 857 857 857 858 858 858 859 859 860 860 860 860 861 861 862 862 863 864 865 866 866 866 867 868 868 869 870 870 871 871 871 872 872 872 873 873 873 873 874 874 874 874 874 874 874 874 874 874 874 874 874 873 873 873 873 873 872 872 872 872 871 871 870 870 869 868 867 867
853 853 854 854 854 854 855 855 855 856 857 857 858 857 857 857 857 858 858 857 858 858 859 859 859 860 860 860 861 861 861 862 862 863 863 864 865 866 866 867 868 868 869 870 870 871 871 871 872 872 873 873 873 873 873 874 874 874 874 874 874 874 874 874 874 874 874 873 873 873 873 873 872 872 872 872 871 871 871 870 869 869 868 867 866
853 854 854 854 854 855 855 855 856 856 857 858 858 858 858 858 857 858 858 857 858 858 859 859 860 860 859 860 860 861 861 861 862 862 863 864 865 866 866 867 867 868 868 869 870 870 871 871 872 872 872 873 873 873 873 874 874 874 874 874 874 874 874 874 874 873 873 873 873 872 872 872 872 872 872 871 871 871 870 870 869 869 868 867 866
854 854 855 855 855 855 856 856 857 856 857 858 858 858 858 859 859 858 858 858 857 858 859 859 860 860 859 860 860 861 861 862 862 862 863 864 865 865 866 867 867 867 868 868 869 870 870 871 871 872 872 872 873 873 873 873 874 874 874 874 874 874 874 874 873 873 873 873 872 872 872 872 872 872 871 871 871 870 870 869 869 868 868 867 866
855 855 855 855 856 856 857 857 858 857 857 858 858 857 857 859 859 858 858 858 857 858 860 859 860 860 860 860 861 861 861 862 862 862 863 864 865 865 866 866 867 867 867 868 869 869 870 870 870 871 871 872 872 872 873 873 873 873 874 874 874 874 873 873 873 872 872 872 872 872 872 871 871 871 871 871 870 870 870 869 869 868 868 867 866
855 856 856 856 856 856 857 858 858 857 858 859 859 858 858 859 860 859 859 858 858 858 859 860 860 861 861 861 861 861 861 862 862 863 863 864 865 865 866 867 867 867 867 868 868 869 869 869 870 870 871 871 871 872 872 872 873 873 873 873 873 873 872 872 872 872 872 872 872 871 871 871 871 871 870 870 870 870 869 869 868 868 867 866 866
856 857 857 856 856 857 857 858 859 858 858 859 859 859 859 860 860 860 859 859 859 859 860 860 861 861 861 861 862 862 862 862 862 862 863 864 865 865 866 867 867 867 867 867 868 869 869 869 869 870 870 870 871 871 872 872 872 872 873 872 872 872 871 871 871 871 871 871 871 871 870 870 870 870 870 870 869 869 869 868 868 868 867 866 866
856 857 857 857 857 857 857 859 859 859 860 860 860 860 860 860 860 860 860 859 859 860 860 860 861 861 861 861 862 862 862 862 862 863 864 864 865 865 866 866 867 867 867 867 868 868 868 869 869 869 869 870 870 871 871 871 872 872 872 871 871 871 871 871 871 871 871 870 870 870 870 869 869 869 869 869 869 869 868 868 868 867 867 866 866
857 858 858 858 857 857 858 859 860 860 861 861 861 861 860 861 861 861 861 860 860 860 860 860 860 860 860 861 862 862 862 862 863 863 864 865 865 865 866 866 866 867 867 868 868 868 868 868 868 868 869 869 870 870 870 871 871 871 871 870 870 870 870 870 870 870 870 869 869 869 869 868 868 868 868 868 868 868 868 867 867 867 866 866 865
856 857 857 858 858 857 858 858 860 860 861 861 861 861 861 861 861 861 861 861 861 860 860 860 860 860 861 862 862 863 863 863 863 863 864 864 865 865 865 866 866 867 867 867 868 868 868 868 868 868 868 869 869 869 870 870 869 870 869 869 870 870 870 870 869 869 869 868 868 868 868 868 868 868 868 868 868 867 867 867 866 866 866 865 865
856 857 857 858 858 858 858 859 860 860 861 862 862 861 862 861 861 861 861 861 861 861 861 861 861 861 861 862 863 863 863 863 863 864 864 864 865 865 864 865 866 866 867 867 867 868 868 868 868 869 869 868 869 869 869 869 868 869 869 869 869 869 869 868 868 868 868 868 867 867 867 867 867 867 867 867 867 866 866 866 865 865 865 865 865
855 856 857 858 858 858 858 859 859 859 861 862 861 861 862 862 861 861 861 861 861 861 861 862 862 862 862 862 862 863 863 864 864 864 864 864 864 865 865 865 865 866 866 866 867 867 868 868 868 869 869 868 868 868 868 868 868 868 868 868 868 868 868 867 868 867 867 867 866 866 866 866 866 866 866 866 866 865 865 865 865 865 865 865 865
856 856 857 858 858 859 859 859 859 859 861 861 861 861 861 861 861 861 861 861 862 861 862 862 862 862 862 862 862 863 863 863 864 864 864 864 864 864 865 865 865 865 865 866 866 867 867 867 868 868 868 868 868 868 867 867 867 867 867 867 867 867 867 866 866 866 866 866 866 866 866 865 865 865 865 865 865 865 864 864 864 864 864 864 864
855 856 857 857 858 859 859 859 859 859 860 860 860 861 861 861 861 862 862 862 862 862 862 862 862 861 862 864 863 863 865 864 863 864 863 864 864 864 864 864 864 865 865 866 866 866 867 867 868 868 868 868 868 868 867 867 867 867 867 866 866 866 866 865 865 865 865 865 865 865 865 865 865 865 865 864 864 864 864 864 864 864 864 864 864
855 856 857 857 858 858 859 859 859 860 860 860 860 861 861 861 861 862 863 863 862 861 862 862 862 862 863 863 861 863 867 864 862 863 863 863 863 863 864 864 864 865 865 865 865 866 866 867 867 867 868 867 867 867 867 867 866 866 866 865 865 865 865 865 864 864 864 865 865 864 864 864 864 864 864 864 864 864 864 864 864 864 864 864 864
854 855 856 857 858 858 859 859 859 860 860 860 860 860 861 861 861 862 862 863 861 861 861 862 862 863 863 863 863 866 867 862 862 864 862 862 862 862 863 863 863 864 865 865 865 865 865 866 866 867 867 866 867 867 867 866 866 865 865 864 864 864 864 864 864 864 864 864 864 863 863 863 863 863 863 863 863 863 863 863 863 863 863 864 863
854 855 856 856 857 858 858 859 859 859 859 860 860 860 861 861 861 861 862 862 862 861 861 862 862 863 863 863 864 866 865 862 864 866 864 862 861 861 861 862 862 863 864 864 864 864 864 865 865 865 865 866 866 866 866 866 865 865 864 864 864 864 864 864 863 863 863 862 862 862 862 862 862 862 862 862 862 862 862 862 863 863 863 863 863
853 854 855 856 857 857 858 858 859 859 859 860 860 860 860 861 861 861 861 862 862 862 862 862 862 863 863 862 863 863 863 863 864 866 867 865 861 860 860 860 860 861 861 862 862 862 863 863 864 864 864 865 865 865 865 865 865 864 864 863 863 863 863 863 862 862 862 861 861 861 861 861 861 861 861 861 861 861 862 862 862 862 862 862 862
853 854 854 855 856 857 858 858 859 859 859 860 860 860 860 860 861 861 861 861 862 862 862 861 862 862 862 862 862 862 863 863 863 864 866 866 864 860 858 859 859 859 859 859 860 860 861 862 863 863 863 863 863 864 864 864 864 863 863 863 863 862 862 862 862 861 861 861 860 860 860 860 860 860 860 860 860 861 861 861 861 861 861 861 861
852 853 854 855 855 856 857 857 858 858 859 859 859 860 860 860 860 861 861 861 862 862 862 862 862 861 862 862 862 862 862 862 862 862 862 865 865 860 857 857 857 858 858 858 858 859 859 860 861 862 862 862 862 862 863 863 863 863 862 862 862 862 861 861 861 861 860 860 859 859 859 859 859 859 859 859 859 860 860 860 860 859 859 859 859
850 851 853 854 854 855 856 857 857 857 858 858 859 859 859 860 860 860 861 861 861 862 862 862 862 861 862 863 863 863 862 862 861 861 861 863 864 859 856 856 855 857 858 858 858 859 859 859 859 860 860 860 861 861 861 862 862 862 861 861 861 861 861 860 860 860 859 859 858 858 858 858 858 858 858 858 858 858 858 858 857 857 857 857 857
849 850 852 853 854 854 855 856 856 857 857 858 858 859 859 859 860 860 860 861 861 861 861 861 861 862 862 862 863 862 862 862 861 861 861 861 862 860 858 857 856 856 857 857 858 858 858 859 859 859 859 859 859 860 860 860 860 860 859 859 860 860 860 859 859 858 858 858 857 857 857 857 857 857 857 856 856 856 856 855 855 855 854 854 854
848 849 850 851 852 853 854 855 855 856 856 857 857 858 858 859 859 859 860 860 861 861 861 861 861 861 861 861 861 860 860 861 861 861 861 861 861 861 858 857 857 856 856 856 857 857 857 857 857 857 857 858 858 858 859 859 859 858 858 858 858 858 858 858 857 857 856 856 856 856 856 856 856 855 855 855 854 854 853 853 853 852 852 851 851
845 847 848 849 851 852 853 854 854 855 855 856 857 857 857 858 858 859 859 860 860 860 861 861 861 861 860 860 860 859 859 860 860 860 860 861 861 861 858 857 856 855 855 855 855 856 855 855 855 855 856 856 857 857 857 858 857 857 857 857 857 857 857 856 855 855 855 855 855 855 854 854 854 854 853 853 852 852 851 851 850 849 849 849 848
843 844 846 848 849 850 851 852 853 854 854 855 856 856 857 857 858 858 858 859 859 860 860 860 860 860 860 860 860 859 859 859 859 859 859 859 859 859 858 858 857 855 854 855 855 855 854 854 854 854 855 855 856 856 856 856 856 855 856 856 855 855 854 854 853 853 853 853 853 853 853 852 852 851 851 850 850 849 849 848 847 847 846 846 845
840 842 844 845 847 848 849 850 852 852 853 854 855 855 856 856 857 857 858 858 859 859 859 859 860 860 860 860 860 859 859 859 859 858 858 858 858 858 859 859 860 857 854 854 854 854 853 853 853 853 853 854 855 855 855 855 855 854 854 854 854 853 852 851 851 851 851 851 851 851 851 850 850 849 848 848 847 846 845 845 844 843 843 843 842
838 840 841 843 845 846 848 849 850 851 852 853 854 855 855 856 856 856 857 857 858 858 859 859 859 859 859 860 859 859 859 859 859 858 859 859 858 859 859 860 862 861 858 855 854 852 851 851 850 851 852 853 853 853 853 853 853 853 852 852 852 851 849 849 849 849 849 849 849 849 848 848 847 846 846 845 844 843 842 841 840 840 840 839 839
836 837 839 840 842 844 846 847 848 849 850 851 852 853 854 855 855 855 856 856 857 857 858 858 858 858 858 859 859 859 859 859 859 859 859 859 859 859 859 859 860 861 861 860 856 852 851 850 849 849 850 851 851 851 851 851 851 851 850 850 850 849 847 847 847 847 847 846 846 846 845 844 844 843 842 842 840 839 838 837 836 836 835 835 835
833 834 836 838 839 841 843 845 846 848 849 850 851 852 853 853 854 854 855 855 856 856 856 857 857 857 857 858 858 858 858 858 858 858 858 859 859 859 859 859 859 859 860 861 858 853 852 851 849 848 849 849 850 850 849 849 849 849 849 848 848 847 846 845 844 844 843 843 842 842 841 840 840 839 838 837 836 834 833 832 832 831 830 830 829
830 832 834 835 837 839 840 842 844 845 847 848 849 850 851 852 852 853 853 854 855 855 855 856 856 856 857 857 857 857 857 857 857 857 857 858 858 858 858 858 858 858 858 859 858 855 852 851 850 849 849 849 849 848 848 848 847 847 847 846 845 844 844 842 841 840 840 839 838 837 837 836 834 833 833 832 830 828 827 828 828 826 825 825 824
828 830 831 832 834 835 837 839 841 843 845 846 847 848 849 850 851 851 852 852 853 853 854 854 854 855 855 856 856 856 856 856 856 856 856 856 857 857 857 857 857 857 857 857 857 854 853 852 850 849 849 848 847 847 846 846 846 845 844 844 843 842 840 839 837 836 835 834 833 833 832 831 830 829 828 827 825 823 823 823 823 822 821 821 820
825 827 829 830 831 832 834 836 838 840 842 843 845 846 847 848 849 850 850 851 851 852 852 853 853 853 854 854 855 855 855 855 855 855 855 855 855 855 856 856 855 856 856 856 855 853 852 851 850 849 848 847 846 845 845 844 844 844 842 841 840 838 837 835 834 832 831 830 829 829 828 826 825 824 824 823 821 820 820 819 819 818 818 817 816
822 824 826 827 829 830 831 833 835 837 839 840 842 844 845 846 847 848 848 849 849 850 851 851 851 852 852 853 853 853 854 854 854 854 854 853 853 853 854 854 854 854 854 854 853 852 850 849 849 848 846 846 845 844 844 843 842 841 840 839 838 837 835 833 831 829 828 827 826 825 824 823 823 822 821 820 818 817 817 816 816 815 814 813 812
819 821 823 824 826 827 828 830 832 834 836 838 840 841 842 843 844 845 846 846 847 848 848 849 849 850 851 851 851 851 852 852 852 852 852 852 852 852 852 852 852 852 852 852 852 851 849 848 847 846 845 844 843 842 842 841 840 839 838 837 836 835 833 831 830 828 826 826 824 823 822 821 820 819 818 818 817 815 814 813 812 811 810 808 807
815 818 820 821 823 825 826 827 829 831 833 835 837 838 839 840 841 842 843 844 845 845 846 847 847 848 848 849 849 850 850 850 850 851 851 851 851 851 851 851 850 850 850 850 850 849 848 846 845 845 844 843 841 841 840 839 838 837 836 835 834 832 831 830 829 827 825 824 823 821 820 818 817 816 815 815 813 812 811 809 808 806 804 802 801
811 814 816 818 820 822 823 825 826 828 830 832 834 835 836 838 839 840 841 842 842 843 844 844 845 846 846 847 847 847 848 848 848 849 849 849 849 849 849 849 849 849 848 848 848 848 847 845 844 843 842 841 840 839 839 838 836 835 834 833 832 830 829 828 828 826 823 822 820 818 816 814 813 812 811 810 809 807 806 804 803 801 798 797 795
807 810 812 815 817 818 820 822 823 825 827 829 830 832 834 835 836 837 838 839 840 840 841 842 843 843 844 844 845 845 846 846 846 846 847 847 847 847 847 847 847 847 847 847 846 846 845 844 842 841 840 840 838 837 837 836 835 833 832 831 830 828 827 826 825 824 822 819 817 816 814 812 810 808 806 805 804 802 801 799 797 796 794 792 792
804 806 808 811 813 815 817 819 820 822 824 826 827 829 831 832 833 834 835 836 837 838 839 839 840 841 841 842 842 843 843 843 844 844 845 845 845 845 845 846 846 846 845 845 844 844 843 842 840 839 838 837 836 835 835 834 833 831 830 828 827 826 825 823 822 821 819 817 815 814 812 810 808 806 803 801 799 797 796 794 793 791 790 789 788
800 802 804 807 810 812 814 816 817 819 821 822 824 826 827 829 831 832 832 833 834 835 836 837 837 838 838 839 839 840 840 841 841 842 842 843 843 843 843 844 844 844 843 843 842 842 841 839 838 837 836 835 835 834 833 832 830 828 827 826 824 823 822 821 820 818 817 815 813 811 810 808 805 803 801 798 796 793 791 790 788 786 786 785 785
797 799 801 803 806 808 811 813 814 816 817 818 820 822 824 825 827 829 830 831 831 832 833 834 835 835 836 836 836 837 837 838 838 839 840 841 841 841 841 842 842 842 841 841 841 840 839 838 836 835 834 833 833 832 830 829 827 826 825 824 823 821 820 818 817 816 815 813 811 808 807 806 803 801 799 797 794 791 789 786 784 782 781 782 782
793 796 798 800 802 804 807 809 811 812 813 814 815 817 820 822 824 825 827 828 828 829 830 831 832 832 833 833 834 834 835 835 836 836 837 838 838 839 839 840 840 840 840 839 839 838 837 836 834 834 832 831 830 829 828 827 826 824 823 823 821 820 819 816 814 813 813 811 809 806 805 805 802 798 796 794 792 790 787 784 782 779 777 777 778
790 792 795 796 798 800 803 805 807 808 809 810 811 813 816 818 820 822 823 825 825 826 827 828 829 830 830 831 831 832 832 833 833 834 834 835 835 836 836 837 837 838 838 837 837 836 835 834 832 832 830 829 828 828 827 826 825 823 822 821 820 818 817 815 812 810 810 810 808 804 801 802 801 797 793 792 790 788 785 782 780 778 775 774 774
787 789 791 793 795 797 799 801 802 804 805 806 807 809 812 814 817 819 820 821 822 823 824 825 826 827 827 828 829 829 829 830 830 831 831 831 832 832 833 834 834 834 834 835 835 834 834 833 831 830 829 828 827 827 827 825 824 822 821 820 819 818 816 814 812 809 808 808 806 802 798 797 798 795 791 790 788 785 782 780 779 776 774 772 771
784 786 788 790 792 794 795 797 798 800 801 803 804 806 808 810 813 815 817 818 819 820 821 822 823 823 824 825 826 826 827 827 828 828 829 829 829 829 830 830 830 830 831 831 831 831 831 831 830 829 828 828 826 826 826 825 823 822 820 819 818 816 814 813 811 809 807 807 805 801 795 793 794 792 789 787 785 782 780 777 776 775 772 770 769
780 783 785 787 789 791 792 794 795 796 798 799 800 802 805 807 810 812 814 816 816 817 818 818 819 820 821 822 823 823 824 825 825 826 826 827 827 827 827 827 827 827 827 827 828 828 828 828 827 827 826 826 825 824 824 823 822 821 819 817 816 815 813 811 810 809 807 805 803 800 794 791 792 789 786 784 783 780 777 775 773 772 770 768 767
777 779 781 784 785 787 789 791 792 793 794 795 797 799 801 804 807 809 811 813 814 814 815 816 817 817 818 819 820 820 821 822 822 823 824 825 825 825 825 825 824 824 824 824 824 824 824 824 824 823 823 822 822 822 822 821 820 819 818 816 815 813 811 809 808 807 805 802 801 799 794 790 790 787 783 782 781 778 775 773 771 770 769 767 765
773 776 778 780 782 784 786 788 789 790 791 793 794 796 798 801 804 806 809 810 811 811 812 812 814 814 815 816 817 818 818 819 820 820 821 822 823 823 823 823 823 822 822 822 821 821 821 820 820 820 819 819 819 819 819 819 818 817 816 815 813 811 809 806 805 804 803 801 800 798 793 790 789 786 782 780 779 776 774 772 769 767 766 764 762
770 772 774 776 778 780 782 784 785 787 788 790 791 793 795 798 801 803 805 807 808 808 809 809 810 811 812 813 814 815 816 816 817 817 818 819 820 821 821 821 820 820 819 819 819 819 818 817 816 816 816 817 817 817 817 816 815 815 814 813 811 810 808 805 802 800 801 800 798 796 792 789 788 786 782 778 776 774 771 769 767 766 764 762 761
766 768 771 772 774 776 778 780 781 783 785 786 788 790 792 794 797 800 802 804 805 805 806 806 807 808 808 809 810 812 812 813 814 815 815 816 817 818 818 818 818 817 817 817 816 816 815 815 815 815 815 815 815 815 815 814 813 813 813 811 810 809 807 805 801 799 798 798 797 794 791 788 787 785 782 777 774 771 770 768 766 765 763 761 759
762 764 767 769 771 772 774 776 777 779 781 782 784 786 788 790 793 796 799 801 802 802 803 803 804 804 805 805 806 807 809 810 812 812 812 813 814 815 815 816 815 815 815 815 814 814 813 813 813 813 813 813 813 812 812 811 811 811 810 809 808 808 806 804 802 799 797 795 795 793 791 788 786 785 783 779 773 769 768 768 766 764 763 761 758